GW1162 Weather Reports


time (UTC)temp
C
wind
direction
speed
KPH
gust
KPH
rain 1hr
cm
rain 24hr
cm
rain mn
cm
humidity
%
barometer
mb
20260504050705 2 227 0.0 1.6 0.00 0.00 0.00 82 1001.4
20260504043705 2 227 0.0 1.6 0.00 0.00 0.00 80 1001.6
20260504043205 2 227 0.0 1.6 0.00 0.00 0.00 79 1001.7
20260504040705 2 227 0.0 0.0 0.00 0.00 0.00 77 1001.7
20260504033705 1 227 1.6 3.2 0.00 0.00 0.00 75 1002.1
20260504033206 1 227 1.6 3.2 0.00 0.00 0.00 75 1002.0
20260504023705 2 233 1.6 3.2 0.00 0.00 0.00 68 1002.2
20260504023205 2 233 1.6 3.2 0.00 0.00 0.00 66 1002.3
20260504020706 3 233 1.6 3.2 0.00 0.00 0.00 63 1002.5
20260504020205 3 233 1.6 3.2 0.00 0.00 0.00 59 1002.4
20260504013706 4 233 1.6 3.2 0.00 0.00 0.00 57 1002.5
20260504013205 4 235 1.6 3.2 0.00 0.00 0.00 56 1002.5
20260504010204 5 235 1.6 3.2 0.00 0.00 0.00 53 1002.4
20260504003705 7 0 1.6 1.6 0.00 0.00 0.00 51 1002.3
20260504003204 7 0 1.6 4.8 0.00 0.00 0.00 49 1002.3
20260504000205 8 354 3.2 4.8 0.00 0.00 0.00 45 1002.2
20260503233705 10 257 1.6 3.2 0.00 0.00 0.00 39 1002.2
20260503233205 10 258 1.6 3.2 0.00 0.00 0.00 39 1002.4
20260503230705 11 0 1.6 3.2 0.00 0.00 0.00 35 1002.3
20260503230204 11 264 0.0 16.1 0.00 0.00 0.00 35 1002.3
20260503223705 11 316 3.2 8.0 0.00 0.00 0.00 37 1002.3
20260503223205 11 316 3.2 12.9 0.00 0.00 0.00 39 1002.4
20260503220704 11 306 3.2 4.8 0.00 0.00 0.00 41 1002.4
20260503220204 11 309 4.8 14.5 0.00 0.00 0.00 37 1002.4
20260503213704 11 323 3.2 12.9 0.00 0.00 0.00 36 1002.6
20260503213204 11 317 4.8 22.5 0.00 0.00 0.00 37 1002.6
20260503210705 11 316 4.8 14.5 0.00 0.00 0.00 33 1002.6
20260503210204 11 254 4.8 16.1 0.00 0.00 0.00 34 1002.6
20260503203704 10 284 9.7 22.5 0.00 0.00 0.00 37 1002.8
20260503203205 10 320 8.0 19.3 0.00 0.00 0.00 39 1002.8
20260503200705 10 323 11.3 20.9 0.00 0.00 0.00 38 1003.1
20260503200205 10 321 12.9 32.2 0.00 0.00 0.00 42 1003.1
20260503193705 10 342 6.4 19.3 0.00 0.00 0.00 39 1003.2
20260503193205 10 304 3.2 24.1 0.00 0.00 0.00 40 1003.3
20260503190704 10 0 14.5 19.3 0.00 0.00 0.00 44 1003.7
20260503190204 10 352 6.4 22.5 0.00 0.00 0.00 41 1003.7
20260503183704 9 0 14.5 25.7 0.00 0.00 0.00 43 1004.0
20260503183205 9 318 11.3 19.3 0.00 0.00 0.00 43 1004.0
20260503180704 9 0 11.3 19.3 0.00 0.00 0.00 45 1004.2
20260503180204 9 0 14.5 24.1 0.00 0.00 0.00 42 1004.3
20260503173705 8 0 3.2 8.0 0.00 0.00 0.00 44 1004.6
20260503173206 8 0 9.7 24.1 0.00 0.00 0.00 43 1004.7
20260503170706 8 0 6.4 20.9 0.00 0.00 0.00 45 1004.9
20260503170205 8 351 16.1 24.1 0.00 0.00 0.00 43 1005.0
20260503160207 7 345 8.0 19.3 0.00 0.00 0.00 43 1005.7
20260503150706 7 309 8.0 16.1 0.00 0.00 0.00 49 1006.3
20260503150207 7 0 11.3 19.3 0.00 0.00 0.00 51 1006.5
20260503140207 6 314 9.7 19.3 0.00 0.00 0.00 58 1007.1
20260503130705 4 310 4.8 9.7 0.00 0.00 0.00 65 1007.6
20260503130205 4 331 1.6 4.8 0.00 0.00 0.00 67 1007.6
20260503120205 2 274 1.6 3.2 0.00 0.00 0.00 89 1007.6
20260503110706 1 273 0.0 0.0 0.00 0.00 0.00 91 1007.6
20260503110205 1 273 0.0 0.0 0.00 0.00 0.00 91 1007.5
20260503100205 0 273 0.0 0.0 0.00 0.00 0.00 90 1007.4
20260503090206 1 273 0.0 0.0 0.00 0.00 0.00 89 1007.7
20260503080706 1 273 0.0 0.0 0.00 0.00 0.00 88 1007.8
20260503080206 1 273 0.0 0.0 0.00 0.00 0.00 88 1007.9
20260503070705 1 273 0.0 0.0 0.00 0.00 0.00 86 1008.0
20260503070205 1 273 0.0 0.0 0.00 0.00 0.00 86 1008.0
20260503060205 2 273 0.0 0.0 0.00 0.00 0.00 82 1008.2